Year,Month,Day,Hour,Minute,Value (Times are PST for temperature in C)
2021,06,10,00,00,8.80
2021,06,10,00,01,8.80
2021,06,10,00,02,8.80
2021,06,10,00,03,8.80
2021,06,10,00,04,8.80
2021,06,10,00,05,8.80
2021,06,10,00,06,8.80
2021,06,10,00,07,8.80
2021,06,10,00,08,8.70
2021,06,10,00,09,8.70
2021,06,10,00,10,8.70
2021,06,10,00,11,8.70
2021,06,10,00,12,8.70
2021,06,10,00,13,8.70
2021,06,10,00,14,8.70
2021,06,10,00,15,8.70
2021,06,10,00,16,8.70
2021,06,10,00,17,8.70
2021,06,10,00,18,8.70
2021,06,10,00,19,8.60
2021,06,10,00,20,8.60
2021,06,10,00,21,8.60
2021,06,10,00,22,8.60
2021,06,10,00,23,8.60
2021,06,10,00,24,8.50
2021,06,10,00,25,8.50
2021,06,10,00,26,8.50
2021,06,10,00,27,8.50
2021,06,10,00,28,8.50
2021,06,10,00,29,8.40
2021,06,10,00,30,8.40
2021,06,10,00,31,8.40
2021,06,10,00,32,8.40
2021,06,10,00,33,8.40
2021,06,10,00,34,8.40
2021,06,10,00,35,8.30
2021,06,10,00,36,8.30
2021,06,10,00,37,8.30
2021,06,10,00,38,8.30
2021,06,10,00,39,8.30
2021,06,10,00,40,8.30
2021,06,10,00,41,8.30
2021,06,10,00,42,8.20
2021,06,10,00,43,8.20
2021,06,10,00,44,8.20
2021,06,10,00,45,8.20
2021,06,10,00,46,8.20
2021,06,10,00,47,8.20
2021,06,10,00,48,8.20
2021,06,10,00,49,8.10
2021,06,10,00,50,8.10
2021,06,10,00,51,8.10
2021,06,10,00,52,8.10
2021,06,10,00,53,8.10
2021,06,10,00,54,8.10
2021,06,10,00,55,8.10
2021,06,10,00,56,8.10
2021,06,10,00,57,8.00
2021,06,10,00,58,8.00
2021,06,10,00,59,8.00
2021,06,10,01,00,8.00
2021,06,10,01,01,7.90
2021,06,10,01,02,7.90
2021,06,10,01,03,7.90
2021,06,10,01,04,7.80
2021,06,10,01,05,7.80
2021,06,10,01,06,7.70
2021,06,10,01,07,7.70
2021,06,10,01,08,7.70
2021,06,10,01,09,7.60
2021,06,10,01,10,7.60
2021,06,10,01,11,7.60
2021,06,10,01,12,7.60
2021,06,10,01,13,7.60
2021,06,10,01,14,7.50
2021,06,10,01,15,7.50
2021,06,10,01,16,7.50
2021,06,10,01,17,7.50
2021,06,10,01,18,7.50
2021,06,10,01,19,7.40
2021,06,10,01,20,7.40
2021,06,10,01,21,7.40
2021,06,10,01,22,7.40
2021,06,10,01,23,7.40
2021,06,10,01,24,7.40
2021,06,10,01,25,7.40
2021,06,10,01,26,7.30
2021,06,10,01,27,7.30
2021,06,10,01,28,7.30
2021,06,10,01,29,7.30
2021,06,10,01,30,7.30
2021,06,10,01,31,7.30
2021,06,10,01,32,7.30
2021,06,10,01,33,7.20
2021,06,10,01,34,7.20
2021,06,10,01,35,7.20
2021,06,10,01,36,7.20
2021,06,10,01,37,7.20
2021,06,10,01,38,7.20
2021,06,10,01,39,7.20
2021,06,10,01,40,7.20
2021,06,10,01,41,7.20
2021,06,10,01,42,7.20
2021,06,10,01,43,7.10
2021,06,10,01,44,7.10
2021,06,10,01,45,7.10
2021,06,10,01,46,7.10
2021,06,10,01,47,7.10
2021,06,10,01,48,7.10
2021,06,10,01,49,7.10
2021,06,10,01,50,7.10
2021,06,10,01,51,7.10
2021,06,10,01,52,7.10
2021,06,10,01,53,7.10
2021,06,10,01,54,7.10
2021,06,10,01,55,7.10
2021,06,10,01,56,7.00
2021,06,10,01,57,7.00
2021,06,10,01,58,7.00
2021,06,10,01,59,6.90
2021,06,10,02,00,6.90
2021,06,10,02,01,6.90
2021,06,10,02,02,6.90
2021,06,10,02,03,6.80
2021,06,10,02,04,6.80
2021,06,10,02,05,6.80
2021,06,10,02,06,6.80
2021,06,10,02,07,6.80
2021,06,10,02,08,6.80
2021,06,10,02,09,6.80
2021,06,10,02,10,6.70
2021,06,10,02,11,6.70
2021,06,10,02,12,6.70
2021,06,10,02,13,6.70
2021,06,10,02,14,6.70
2021,06,10,02,15,6.70
2021,06,10,02,16,6.80
2021,06,10,02,17,6.80
2021,06,10,02,18,6.80
2021,06,10,02,19,6.80
2021,06,10,02,20,6.80
2021,06,10,02,21,6.80
2021,06,10,02,22,6.80
2021,06,10,02,23,6.80
2021,06,10,02,24,6.80
2021,06,10,02,25,6.80
2021,06,10,02,26,6.80
2021,06,10,02,27,6.80
2021,06,10,02,28,6.80
2021,06,10,02,29,6.80
2021,06,10,02,30,6.80
2021,06,10,02,31,6.80
2021,06,10,02,32,6.80
2021,06,10,02,33,6.80
2021,06,10,02,34,6.80
2021,06,10,02,35,6.80
2021,06,10,02,36,6.80
2021,06,10,02,37,6.80
2021,06,10,02,38,6.80
2021,06,10,02,39,6.80
2021,06,10,02,40,6.80
2021,06,10,02,41,6.70
2021,06,10,02,42,6.70
2021,06,10,02,43,6.70
2021,06,10,02,44,6.70
2021,06,10,02,45,6.70
2021,06,10,02,46,6.70
2021,06,10,02,47,6.80
2021,06,10,02,48,6.80
2021,06,10,02,49,6.80
2021,06,10,02,50,6.80
2021,06,10,02,51,6.80
2021,06,10,02,52,6.80
2021,06,10,02,53,6.80
2021,06,10,02,54,6.80
2021,06,10,02,55,6.80
2021,06,10,02,56,6.80
2021,06,10,02,57,6.80
2021,06,10,02,58,6.80
2021,06,10,02,59,6.80
2021,06,10,03,00,6.80
2021,06,10,03,01,6.80
2021,06,10,03,02,6.80
2021,06,10,03,03,6.80
2021,06,10,03,04,6.80
2021,06,10,03,05,6.80
2021,06,10,03,06,6.80
2021,06,10,03,07,6.80
2021,06,10,03,08,6.80
2021,06,10,03,09,6.80
2021,06,10,03,10,6.80
2021,06,10,03,11,6.80
2021,06,10,03,12,6.70
2021,06,10,03,13,6.70
2021,06,10,03,14,6.70
2021,06,10,03,15,6.70
2021,06,10,03,16,6.70
2021,06,10,03,17,6.80
2021,06,10,03,18,6.80
2021,06,10,03,19,6.80
2021,06,10,03,20,6.80
2021,06,10,03,21,6.80
2021,06,10,03,22,6.80
2021,06,10,03,23,6.70
2021,06,10,03,24,6.70
2021,06,10,03,25,6.70
2021,06,10,03,26,6.70
2021,06,10,03,27,6.70
2021,06,10,03,28,6.70
2021,06,10,03,29,6.70
2021,06,10,03,30,6.70
2021,06,10,03,31,6.70
2021,06,10,03,32,6.60
2021,06,10,03,33,6.60
2021,06,10,03,34,6.60
2021,06,10,03,35,6.60
2021,06,10,03,36,6.60
2021,06,10,03,37,6.60
2021,06,10,03,38,6.60
2021,06,10,03,39,6.60
2021,06,10,03,40,6.60
2021,06,10,03,41,6.60
2021,06,10,03,42,6.50
2021,06,10,03,43,6.50
2021,06,10,03,44,6.50
2021,06,10,03,45,6.40
2021,06,10,03,46,6.40
2021,06,10,03,47,6.40
2021,06,10,03,48,6.40
2021,06,10,03,49,6.40
2021,06,10,03,50,6.40
2021,06,10,03,51,6.40
2021,06,10,03,52,6.40
2021,06,10,03,53,6.30
2021,06,10,03,54,6.30
2021,06,10,03,55,6.30
2021,06,10,03,56,6.30
2021,06,10,03,57,6.30
2021,06,10,03,58,6.20
2021,06,10,03,59,6.20
2021,06,10,04,00,6.20
2021,06,10,04,01,6.20
2021,06,10,04,02,6.20
2021,06,10,04,03,6.20
2021,06,10,04,04,6.20
2021,06,10,04,05,6.20
2021,06,10,04,06,6.20
2021,06,10,04,07,6.20
2021,06,10,04,08,6.10
2021,06,10,04,09,6.10
2021,06,10,04,10,6.10
2021,06,10,04,11,6.10
2021,06,10,04,12,6.20
2021,06,10,04,13,6.20
2021,06,10,04,14,6.20
2021,06,10,04,15,6.20
2021,06,10,04,16,6.20
2021,06,10,04,17,6.20
2021,06,10,04,18,6.20
2021,06,10,04,19,6.20
2021,06,10,04,20,6.20
2021,06,10,04,21,6.20
2021,06,10,04,22,6.20
2021,06,10,04,23,6.20
2021,06,10,04,24,6.20
2021,06,10,04,25,6.10
2021,06,10,04,26,6.10
2021,06,10,04,27,6.10
2021,06,10,04,28,6.10
2021,06,10,04,29,6.10
2021,06,10,04,30,6.00
2021,06,10,04,31,6.00
2021,06,10,04,32,6.00
2021,06,10,04,33,6.00
2021,06,10,04,34,5.90
2021,06,10,04,35,5.90
2021,06,10,04,36,5.90
2021,06,10,04,37,5.90
2021,06,10,04,38,5.90
2021,06,10,04,39,5.90
2021,06,10,04,40,5.90
2021,06,10,04,41,5.90
2021,06,10,04,42,5.90
2021,06,10,04,43,5.90
2021,06,10,04,44,5.90
2021,06,10,04,45,5.90
2021,06,10,04,46,5.90
2021,06,10,04,47,5.90
2021,06,10,04,48,5.90
2021,06,10,04,49,5.90
2021,06,10,04,50,5.90
2021,06,10,04,51,5.90
2021,06,10,04,52,5.90
2021,06,10,04,53,5.80
2021,06,10,04,54,5.80
2021,06,10,04,55,5.80
2021,06,10,04,56,5.80
2021,06,10,04,57,5.80
2021,06,10,04,58,5.80
2021,06,10,04,59,5.80
2021,06,10,05,00,5.80
2021,06,10,05,01,5.80
2021,06,10,05,02,5.80
2021,06,10,05,03,5.80
2021,06,10,05,04,5.70
2021,06,10,05,05,5.70
2021,06,10,05,06,5.70
2021,06,10,05,07,5.70
2021,06,10,05,08,5.70
2021,06,10,05,09,5.70
2021,06,10,05,10,5.70
2021,06,10,05,11,5.70
2021,06,10,05,12,5.70
2021,06,10,05,13,5.70
2021,06,10,05,14,5.80
2021,06,10,05,15,5.80
2021,06,10,05,16,5.80
2021,06,10,05,17,5.80
2021,06,10,05,18,5.80
2021,06,10,05,19,5.80
2021,06,10,05,20,5.80
2021,06,10,05,21,5.80
2021,06,10,05,22,5.80
2021,06,10,05,23,5.80
2021,06,10,05,24,5.80
2021,06,10,05,25,5.80
2021,06,10,05,26,5.80
2021,06,10,05,27,5.80
2021,06,10,05,28,5.80
2021,06,10,05,29,5.80
2021,06,10,05,30,5.80
2021,06,10,05,31,5.80
2021,06,10,05,32,5.80
2021,06,10,05,33,5.80
2021,06,10,05,34,5.80
2021,06,10,05,35,5.80
2021,06,10,05,36,5.80
2021,06,10,05,37,5.80
2021,06,10,05,38,5.80
2021,06,10,05,39,5.90
2021,06,10,05,40,5.90
2021,06,10,05,41,5.90
2021,06,10,05,42,5.90
2021,06,10,05,43,5.90
2021,06,10,05,44,5.90
2021,06,10,05,45,6.00
2021,06,10,05,46,6.00
2021,06,10,05,47,6.00
2021,06,10,05,48,6.00
2021,06,10,05,49,6.10
2021,06,10,05,50,6.10
2021,06,10,05,51,6.10
2021,06,10,05,52,6.10
2021,06,10,05,53,6.10
2021,06,10,05,54,6.10
2021,06,10,05,55,6.20
2021,06,10,05,56,6.20
2021,06,10,05,57,6.20
2021,06,10,05,58,6.20
2021,06,10,05,59,6.20
2021,06,10,06,00,6.20
2021,06,10,06,01,6.20
2021,06,10,06,02,6.20
2021,06,10,06,03,6.20
2021,06,10,06,04,6.20
2021,06,10,06,05,6.20
2021,06,10,06,06,6.20
2021,06,10,06,07,6.30
2021,06,10,06,08,6.30
2021,06,10,06,09,6.30
2021,06,10,06,10,6.30
2021,06,10,06,11,6.40
2021,06,10,06,12,6.40
2021,06,10,06,13,6.40
2021,06,10,06,14,6.50
2021,06,10,06,15,6.50
2021,06,10,06,16,6.60
2021,06,10,06,17,6.60
2021,06,10,06,18,6.60
2021,06,10,06,19,6.70
2021,06,10,06,20,6.70
2021,06,10,06,21,6.70
2021,06,10,06,22,6.70
2021,06,10,06,23,6.80
2021,06,10,06,24,6.80
2021,06,10,06,25,6.90
2021,06,10,06,26,6.90
2021,06,10,06,27,7.00
2021,06,10,06,28,7.00
2021,06,10,06,29,7.10
2021,06,10,06,30,7.10
2021,06,10,06,31,7.20
2021,06,10,06,32,7.20
2021,06,10,06,33,7.20
2021,06,10,06,34,7.30
2021,06,10,06,35,7.30
2021,06,10,06,36,7.40
2021,06,10,06,37,7.40
2021,06,10,06,38,7.50
2021,06,10,06,39,7.50
2021,06,10,06,40,7.60
2021,06,10,06,41,7.70
2021,06,10,06,42,7.70
2021,06,10,06,43,7.80
2021,06,10,06,44,7.80
2021,06,10,06,45,7.90
2021,06,10,06,46,8.00
2021,06,10,06,47,8.00
2021,06,10,06,48,8.10
2021,06,10,06,49,8.10
2021,06,10,06,50,8.20
2021,06,10,06,51,8.30
2021,06,10,06,52,8.30
2021,06,10,06,53,8.40
2021,06,10,06,54,8.50
2021,06,10,06,55,8.60
2021,06,10,06,56,8.70
2021,06,10,06,57,8.80
2021,06,10,06,58,8.90
2021,06,10,06,59,8.90
2021,06,10,07,00,9.00
2021,06,10,07,01,9.00
2021,06,10,07,02,9.10
2021,06,10,07,03,9.10
2021,06,10,07,04,9.20
2021,06,10,07,05,9.20
2021,06,10,07,06,9.20
2021,06,10,07,07,9.30
2021,06,10,07,08,9.40
2021,06,10,07,09,9.40
2021,06,10,07,10,9.40
2021,06,10,07,11,9.50
2021,06,10,07,12,9.50
2021,06,10,07,13,9.60
2021,06,10,07,14,9.60
2021,06,10,07,15,9.60
2021,06,10,07,16,9.60
2021,06,10,07,17,9.70
2021,06,10,07,18,9.70
2021,06,10,07,19,9.70
2021,06,10,07,20,9.70
2021,06,10,07,21,9.60
2021,06,10,07,22,9.60
2021,06,10,07,23,9.60
2021,06,10,07,24,9.60
2021,06,10,07,25,9.60
2021,06,10,07,26,9.70
2021,06,10,07,27,9.70
2021,06,10,07,28,9.70
2021,06,10,07,29,9.70
2021,06,10,07,30,9.70
2021,06,10,07,31,9.70
2021,06,10,07,32,9.70
2021,06,10,07,33,9.70
2021,06,10,07,34,9.80
2021,06,10,07,35,9.90
2021,06,10,07,36,10.00
2021,06,10,07,37,10.10
2021,06,10,07,38,10.10
2021,06,10,07,39,10.20
2021,06,10,07,40,10.20
2021,06,10,07,41,10.20
2021,06,10,07,42,10.20
2021,06,10,07,43,10.30
2021,06,10,07,44,10.30
2021,06,10,07,45,10.40
2021,06,10,07,46,10.50
2021,06,10,07,47,10.60
2021,06,10,07,48,10.60
2021,06,10,07,49,10.70
2021,06,10,07,50,10.70
2021,06,10,07,51,10.70
2021,06,10,07,52,10.80
2021,06,10,07,53,10.90
2021,06,10,07,54,10.90
2021,06,10,07,55,10.90
2021,06,10,07,56,11.00
2021,06,10,07,57,11.00
2021,06,10,07,58,11.10
2021,06,10,07,59,11.10
2021,06,10,08,00,11.10
2021,06,10,08,01,11.10
2021,06,10,08,02,11.20
2021,06,10,08,03,11.30
2021,06,10,08,04,11.30
2021,06,10,08,05,11.30
2021,06,10,08,06,11.30
2021,06,10,08,07,11.40
2021,06,10,08,08,11.40
2021,06,10,08,09,11.40
2021,06,10,08,10,11.40
2021,06,10,08,11,11.40
2021,06,10,08,12,11.50
2021,06,10,08,13,11.50
2021,06,10,08,14,11.60
2021,06,10,08,15,11.70
2021,06,10,08,16,11.80
2021,06,10,08,17,11.80
2021,06,10,08,18,11.90
2021,06,10,08,19,11.90
2021,06,10,08,20,11.90
2021,06,10,08,21,11.90
2021,06,10,08,22,11.90
2021,06,10,08,23,12.00
2021,06,10,08,24,12.00
2021,06,10,08,25,12.10
2021,06,10,08,26,12.10
2021,06,10,08,27,12.10
2021,06,10,08,28,12.10
2021,06,10,08,29,12.10
2021,06,10,08,30,12.10
2021,06,10,08,31,12.10
2021,06,10,08,32,12.10
2021,06,10,08,33,12.10
2021,06,10,08,34,12.10
2021,06,10,08,35,12.20
2021,06,10,08,36,12.20
2021,06,10,08,37,12.20
2021,06,10,08,38,12.30
2021,06,10,08,39,12.30
2021,06,10,08,40,12.40
2021,06,10,08,41,12.50
2021,06,10,08,42,12.50
2021,06,10,08,43,12.50
2021,06,10,08,44,12.50
2021,06,10,08,45,12.50
2021,06,10,08,46,12.60
2021,06,10,08,47,12.60
2021,06,10,08,48,12.60
2021,06,10,08,49,12.50
2021,06,10,08,50,12.50
2021,06,10,08,51,12.50
2021,06,10,08,52,12.60
2021,06,10,08,53,12.60
2021,06,10,08,54,12.60
2021,06,10,08,55,12.60
2021,06,10,08,56,12.60
2021,06,10,08,57,12.50
2021,06,10,08,58,12.50
2021,06,10,08,59,12.40
2021,06,10,09,00,12.40
2021,06,10,09,01,12.30
2021,06,10,09,02,12.30
2021,06,10,09,03,12.30
2021,06,10,09,04,12.30
2021,06,10,09,05,12.30
2021,06,10,09,06,12.30
2021,06,10,09,07,12.20
2021,06,10,09,08,12.20
2021,06,10,09,09,12.10
2021,06,10,09,10,12.10
2021,06,10,09,11,12.00
2021,06,10,09,12,12.00
2021,06,10,09,13,11.90
2021,06,10,09,14,11.90
2021,06,10,09,15,11.90
2021,06,10,09,16,11.90
2021,06,10,09,17,11.90
2021,06,10,09,18,11.80
2021,06,10,09,19,11.80
2021,06,10,09,20,11.80
2021,06,10,09,21,11.90
2021,06,10,09,22,11.90
2021,06,10,09,23,11.90
2021,06,10,09,24,11.90
2021,06,10,09,25,11.90
2021,06,10,09,26,11.90
2021,06,10,09,27,12.00
2021,06,10,09,28,12.00
2021,06,10,09,29,12.00
2021,06,10,09,30,12.00
2021,06,10,09,31,12.00
2021,06,10,09,32,12.00
2021,06,10,09,33,12.00
2021,06,10,09,34,11.90
2021,06,10,09,35,11.90
2021,06,10,09,36,11.90
2021,06,10,09,37,11.90
2021,06,10,09,38,11.80
2021,06,10,09,39,11.80
2021,06,10,09,40,11.80
2021,06,10,09,41,11.80
2021,06,10,09,42,11.80
2021,06,10,09,43,11.90
2021,06,10,09,44,11.90
2021,06,10,09,45,12.00
2021,06,10,09,46,12.00
2021,06,10,09,47,12.00
2021,06,10,09,48,12.10
2021,06,10,09,49,12.10
2021,06,10,09,50,12.20
2021,06,10,09,51,12.20
2021,06,10,09,52,12.20
2021,06,10,09,53,12.30
2021,06,10,09,54,12.30
2021,06,10,09,55,12.30
2021,06,10,09,56,12.20
2021,06,10,09,57,12.20
2021,06,10,09,58,12.20
2021,06,10,09,59,12.10
2021,06,10,10,00,12.10
2021,06,10,10,01,12.10
2021,06,10,10,02,12.00
2021,06,10,10,03,12.00
2021,06,10,10,04,12.00
2021,06,10,10,05,12.00
2021,06,10,10,06,12.00
2021,06,10,10,07,12.10
2021,06,10,10,08,12.10
2021,06,10,10,09,12.20
2021,06,10,10,10,12.20
2021,06,10,10,11,12.20
2021,06,10,10,12,12.20
2021,06,10,10,13,12.30
2021,06,10,10,14,12.30
2021,06,10,10,15,12.20
2021,06,10,10,16,12.20
2021,06,10,10,17,12.20
2021,06,10,10,18,12.20
2021,06,10,10,19,12.20
2021,06,10,10,20,12.20
2021,06,10,10,21,12.20
2021,06,10,10,22,12.20
2021,06,10,10,23,12.20
2021,06,10,10,24,12.20
2021,06,10,10,25,12.20
2021,06,10,10,26,12.20
2021,06,10,10,27,12.30
2021,06,10,10,28,12.30
2021,06,10,10,29,12.40
2021,06,10,10,30,12.50
2021,06,10,10,31,12.50
2021,06,10,10,32,12.50
2021,06,10,10,33,12.60
2021,06,10,10,34,12.60
2021,06,10,10,35,12.70
2021,06,10,10,36,12.70
2021,06,10,10,37,12.80
2021,06,10,10,38,12.90
2021,06,10,10,39,12.90
2021,06,10,10,40,12.90
2021,06,10,10,41,12.90
2021,06,10,10,42,13.00
2021,06,10,10,43,13.00
2021,06,10,10,44,13.10
2021,06,10,10,45,13.10
2021,06,10,10,46,13.10
2021,06,10,10,47,13.10
2021,06,10,10,48,13.10
2021,06,10,10,49,13.10
2021,06,10,10,50,13.10
2021,06,10,10,51,13.10
2021,06,10,10,52,13.20
2021,06,10,10,53,13.30
2021,06,10,10,54,13.30
2021,06,10,10,55,13.40
2021,06,10,10,56,13.40
2021,06,10,10,57,13.50
2021,06,10,10,58,13.60
2021,06,10,10,59,13.60
2021,06,10,11,00,13.60
2021,06,10,11,01,13.60
2021,06,10,11,02,13.50
2021,06,10,11,03,13.50
2021,06,10,11,04,13.40
2021,06,10,11,05,13.40
2021,06,10,11,06,13.30
2021,06,10,11,07,13.30
2021,06,10,11,08,13.30
2021,06,10,11,09,13.30
2021,06,10,11,10,13.40
2021,06,10,11,11,13.40
2021,06,10,11,12,13.40
2021,06,10,11,13,13.50
2021,06,10,11,14,13.50
2021,06,10,11,15,13.60
2021,06,10,11,16,13.70
2021,06,10,11,17,13.70
2021,06,10,11,18,13.70
2021,06,10,11,19,13.70
2021,06,10,11,20,13.90
2021,06,10,11,21,13.90
2021,06,10,11,22,13.90
2021,06,10,11,23,13.90
2021,06,10,11,24,13.90
2021,06,10,11,25,13.80
2021,06,10,11,26,13.90
2021,06,10,11,27,13.90
2021,06,10,11,28,13.90
2021,06,10,11,29,13.90
2021,06,10,11,30,14.00
2021,06,10,11,31,14.00
2021,06,10,11,32,14.00
2021,06,10,11,33,14.00
2021,06,10,11,34,14.00
2021,06,10,11,35,14.00
2021,06,10,11,36,14.10
2021,06,10,11,37,14.10
2021,06,10,11,38,14.10
2021,06,10,11,39,14.00
2021,06,10,11,40,14.00
2021,06,10,11,41,14.00
2021,06,10,11,42,14.10
2021,06,10,11,43,14.10
2021,06,10,11,44,14.20
2021,06,10,11,45,14.20
2021,06,10,11,46,14.20
2021,06,10,11,47,14.20
2021,06,10,11,48,14.20
2021,06,10,11,49,14.20
2021,06,10,11,50,14.20
2021,06,10,11,51,14.20
2021,06,10,11,52,14.20
2021,06,10,11,53,14.20
2021,06,10,11,54,14.20
2021,06,10,11,55,14.10
2021,06,10,11,56,14.10
2021,06,10,11,57,14.00
2021,06,10,11,58,14.00
2021,06,10,11,59,14.00
2021,06,10,12,00,14.00
2021,06,10,12,01,14.00
2021,06,10,12,02,14.00
2021,06,10,12,03,14.00
2021,06,10,12,04,13.90
2021,06,10,12,05,13.90
2021,06,10,12,06,13.90
2021,06,10,12,07,13.90
2021,06,10,12,08,14.00
2021,06,10,12,09,14.00
2021,06,10,12,10,13.90
2021,06,10,12,11,14.00
2021,06,10,12,12,14.00
2021,06,10,12,13,14.10
2021,06,10,12,14,14.10
2021,06,10,12,15,14.10
2021,06,10,12,16,14.20
2021,06,10,12,17,14.20
2021,06,10,12,18,14.20
2021,06,10,12,19,14.20
2021,06,10,12,20,14.20
2021,06,10,12,21,14.20
2021,06,10,12,22,14.20
2021,06,10,12,23,14.20
2021,06,10,12,24,14.20
2021,06,10,12,25,14.20
2021,06,10,12,26,14.20
2021,06,10,12,27,14.30
2021,06,10,12,28,14.30
2021,06,10,12,29,14.30
2021,06,10,12,30,14.40
2021,06,10,12,31,14.40
2021,06,10,12,32,14.40
2021,06,10,12,33,14.30
2021,06,10,12,34,14.30
2021,06,10,12,35,14.30
2021,06,10,12,36,14.40
2021,06,10,12,37,14.40
2021,06,10,12,38,14.40
2021,06,10,12,39,14.30
2021,06,10,12,40,14.30
2021,06,10,12,41,14.30
2021,06,10,12,42,14.30
2021,06,10,12,43,14.30
2021,06,10,12,44,14.30
2021,06,10,12,45,14.30
2021,06,10,12,46,14.30
2021,06,10,12,47,14.30
2021,06,10,12,48,14.30
2021,06,10,12,49,14.30
2021,06,10,12,50,14.30
2021,06,10,12,51,14.30
2021,06,10,12,52,14.30
2021,06,10,12,53,14.20
2021,06,10,12,54,14.20
2021,06,10,12,55,14.20
2021,06,10,12,56,14.30
2021,06,10,12,57,14.30
2021,06,10,12,58,14.40
2021,06,10,12,59,14.40
2021,06,10,13,00,14.50
2021,06,10,13,01,14.60
2021,06,10,13,02,14.60
2021,06,10,13,03,14.80
2021,06,10,13,04,15.00
2021,06,10,13,05,15.20
2021,06,10,13,06,15.30
2021,06,10,13,07,15.50
2021,06,10,13,08,15.60
2021,06,10,13,09,15.70
2021,06,10,13,10,15.80
2021,06,10,13,11,15.80
2021,06,10,13,12,16.00
2021,06,10,13,13,16.10
2021,06,10,13,14,16.10
2021,06,10,13,15,16.00
2021,06,10,13,16,15.90
2021,06,10,13,17,15.80
2021,06,10,13,18,15.80
2021,06,10,13,19,15.70
2021,06,10,13,20,15.60
2021,06,10,13,21,15.60
2021,06,10,13,22,15.60
2021,06,10,13,23,15.50
2021,06,10,13,24,15.60
2021,06,10,13,25,15.60
2021,06,10,13,26,15.60
2021,06,10,13,27,15.60
2021,06,10,13,28,15.60
2021,06,10,13,29,15.70
2021,06,10,13,30,15.70
2021,06,10,13,31,15.70
2021,06,10,13,32,15.80
2021,06,10,13,33,15.80
2021,06,10,13,34,15.80
2021,06,10,13,35,15.80
2021,06,10,13,36,15.80
2021,06,10,13,37,15.80
2021,06,10,13,38,15.80
2021,06,10,13,39,15.80
2021,06,10,13,40,15.80
2021,06,10,13,41,15.80
2021,06,10,13,42,15.70
2021,06,10,13,43,15.60
2021,06,10,13,44,15.50
2021,06,10,13,45,15.30
2021,06,10,13,46,15.30
2021,06,10,13,47,15.20
2021,06,10,13,48,15.20
2021,06,10,13,49,15.20
2021,06,10,13,50,15.20
2021,06,10,13,51,15.20
2021,06,10,13,52,15.10
2021,06,10,13,53,15.10
2021,06,10,13,54,15.00
2021,06,10,13,55,15.00
2021,06,10,13,56,14.90
2021,06,10,13,57,14.90
2021,06,10,13,58,14.90
2021,06,10,13,59,14.90
2021,06,10,14,00,14.90
2021,06,10,14,01,15.00
2021,06,10,14,02,15.00
2021,06,10,14,03,15.00
2021,06,10,14,04,15.00
2021,06,10,14,05,15.10
2021,06,10,14,06,15.20
2021,06,10,14,07,15.20
2021,06,10,14,08,15.20
2021,06,10,14,09,15.30
2021,06,10,14,10,15.30
2021,06,10,14,11,15.30
2021,06,10,14,12,15.30
2021,06,10,14,13,15.30
2021,06,10,14,14,15.20
2021,06,10,14,15,15.10
2021,06,10,14,16,14.90
2021,06,10,14,17,14.80
2021,06,10,14,18,14.70
2021,06,10,14,19,14.50
2021,06,10,14,20,14.40
2021,06,10,14,21,14.40
2021,06,10,14,22,14.30
2021,06,10,14,23,14.20
2021,06,10,14,24,14.10
2021,06,10,14,25,14.00
2021,06,10,14,26,14.00
2021,06,10,14,27,14.00
2021,06,10,14,28,14.00
2021,06,10,14,29,14.00
2021,06,10,14,30,14.00
2021,06,10,14,31,14.00
2021,06,10,14,32,14.00
2021,06,10,14,33,14.00
2021,06,10,14,34,14.00
2021,06,10,14,35,14.00
2021,06,10,14,36,14.00
2021,06,10,14,37,13.90
2021,06,10,14,38,13.90
2021,06,10,14,39,13.90
2021,06,10,14,40,13.90
2021,06,10,14,41,13.90
2021,06,10,14,42,14.00
2021,06,10,14,43,14.00
2021,06,10,14,44,14.00
2021,06,10,14,45,13.90
2021,06,10,14,46,13.90
2021,06,10,14,47,13.90
2021,06,10,14,48,13.90
2021,06,10,14,49,13.90
2021,06,10,14,50,13.90
2021,06,10,14,51,13.80
2021,06,10,14,52,13.80
2021,06,10,14,53,13.80
2021,06,10,14,54,13.80
2021,06,10,14,55,13.80
2021,06,10,14,56,13.80
2021,06,10,14,57,13.80
2021,06,10,14,58,13.80
2021,06,10,14,59,13.80
2021,06,10,15,00,13.80
2021,06,10,15,01,13.80
2021,06,10,15,02,13.80
2021,06,10,15,03,13.80
2021,06,10,15,04,13.80
2021,06,10,15,05,13.80
2021,06,10,15,06,13.80
2021,06,10,15,07,13.80
2021,06,10,15,08,13.80
2021,06,10,15,09,13.80
2021,06,10,15,10,13.80
2021,06,10,15,11,13.80
2021,06,10,15,12,13.80
2021,06,10,15,13,13.80
2021,06,10,15,14,13.80
2021,06,10,15,15,13.90
2021,06,10,15,16,13.90
2021,06,10,15,17,14.00
2021,06,10,15,18,14.10
2021,06,10,15,19,14.10
2021,06,10,15,20,14.20
2021,06,10,15,21,14.30
2021,06,10,15,22,14.30
2021,06,10,15,23,14.40
2021,06,10,15,24,14.50
2021,06,10,15,25,14.60
2021,06,10,15,26,14.70
2021,06,10,15,27,14.70
2021,06,10,15,28,14.80
2021,06,10,15,29,14.80
2021,06,10,15,30,14.90
2021,06,10,15,31,14.90
2021,06,10,15,32,15.00
2021,06,10,15,33,15.00
2021,06,10,15,34,15.10
2021,06,10,15,35,15.10
2021,06,10,15,36,15.20
2021,06,10,15,37,15.20
2021,06,10,15,38,15.30
2021,06,10,15,39,15.30
2021,06,10,15,40,15.40
2021,06,10,15,41,15.40
2021,06,10,15,42,15.40
2021,06,10,15,43,15.40
2021,06,10,15,44,15.40
2021,06,10,15,45,15.40
2021,06,10,15,46,15.40
2021,06,10,15,47,15.40
2021,06,10,15,48,15.30
2021,06,10,15,49,15.30
2021,06,10,15,50,15.20
2021,06,10,15,51,15.10
2021,06,10,15,52,15.10
2021,06,10,15,53,15.00
2021,06,10,15,54,15.00
2021,06,10,15,55,15.00
2021,06,10,15,56,14.90
2021,06,10,15,57,14.90
2021,06,10,15,58,14.80
2021,06,10,15,59,14.80
2021,06,10,16,00,14.70
2021,06,10,16,01,14.70
2021,06,10,16,02,14.60
2021,06,10,16,03,14.60
2021,06,10,16,04,14.50
2021,06,10,16,05,14.50
2021,06,10,16,06,14.50
2021,06,10,16,07,14.50
2021,06,10,16,08,14.50
2021,06,10,16,09,14.40
2021,06,10,16,10,14.40
2021,06,10,16,11,14.40
2021,06,10,16,12,14.40
2021,06,10,16,13,14.40
2021,06,10,16,14,14.40
2021,06,10,16,15,14.50
2021,06,10,16,16,14.50
2021,06,10,16,17,14.60
2021,06,10,16,18,14.60
2021,06,10,16,19,14.60
2021,06,10,16,20,14.70
2021,06,10,16,21,14.70
2021,06,10,16,22,14.70
2021,06,10,16,23,14.70
2021,06,10,16,24,14.70
2021,06,10,16,25,14.80
2021,06,10,16,26,14.80
2021,06,10,16,27,14.80
2021,06,10,16,28,14.80
2021,06,10,16,29,14.80
2021,06,10,16,30,14.80
2021,06,10,16,31,14.90
2021,06,10,16,32,14.90
2021,06,10,16,33,14.90
2021,06,10,16,34,14.90
2021,06,10,16,35,14.90
2021,06,10,16,36,14.90
2021,06,10,16,37,14.90
2021,06,10,16,38,14.80
2021,06,10,16,39,14.80
2021,06,10,16,40,14.80
2021,06,10,16,41,14.80
2021,06,10,16,42,14.80
2021,06,10,16,43,14.80
2021,06,10,16,44,14.70
2021,06,10,16,45,14.70
2021,06,10,16,46,14.80
2021,06,10,16,47,14.80
2021,06,10,16,48,14.90
2021,06,10,16,49,14.90
2021,06,10,16,50,14.90
2021,06,10,16,51,14.90
2021,06,10,16,52,14.90
2021,06,10,16,53,14.90
2021,06,10,16,54,14.90
2021,06,10,16,55,15.00
2021,06,10,16,56,15.00
2021,06,10,16,57,15.10
2021,06,10,16,58,15.10
2021,06,10,16,59,15.00
2021,06,10,17,00,15.00
2021,06,10,17,01,14.90
2021,06,10,17,02,14.80
2021,06,10,17,03,14.80
2021,06,10,17,04,14.80
2021,06,10,17,05,14.80
2021,06,10,17,06,14.80
2021,06,10,17,07,14.70
2021,06,10,17,08,14.70
2021,06,10,17,09,14.70
2021,06,10,17,10,14.60
2021,06,10,17,11,14.60
2021,06,10,17,12,14.60
2021,06,10,17,13,14.70
2021,06,10,17,14,14.70
2021,06,10,17,15,14.70
2021,06,10,17,16,14.80
2021,06,10,17,17,14.80
2021,06,10,17,18,14.80
2021,06,10,17,19,14.90
2021,06,10,17,20,14.90
2021,06,10,17,21,14.90
2021,06,10,17,22,14.90
2021,06,10,17,23,14.90
2021,06,10,17,24,14.90
2021,06,10,17,25,14.80
2021,06,10,17,26,14.80
2021,06,10,17,27,14.80
2021,06,10,17,28,14.80
2021,06,10,17,29,14.80
2021,06,10,17,30,14.70
2021,06,10,17,31,14.70
2021,06,10,17,32,14.70
2021,06,10,17,33,14.70
2021,06,10,17,34,14.60
2021,06,10,17,35,14.60
2021,06,10,17,36,14.50
2021,06,10,17,37,14.50
2021,06,10,17,38,14.40
2021,06,10,17,39,14.40